Home > Weather > San Salvador > Past weeks

Flag for El Salvador Weather for the Past 2 Weeks in San Salvador, El Salvador

Now
77 °F

Clear.


Feels Like: 79 °F
Forecast: 59 / 84 °F
Wind: 8 mph from Northeast

Location: El Salvador Intl. Airport / Comalapa

Current Time: Feb 12, 2016 at 4:38:18 AM

Latest Report: Feb 12, 2016 at 3:50 AM


Visibility: 10 mi

Pressure: 29.89 "Hg (27.69 "Hg at 667m altitude)

Humidity: 47%

Dew point: 55 °F

Location of San SalvadorLocation

Historic Weather in San Salvador — Graph

°F

San Salvador Temperature Yesterday

Maximum temperature yesterday: 93 °F (at 1:50 PM)
Minimum temperature yesterday: 75 °F (at 12:50 AM)
Average temperature yesterday: 82 °F

High & Low Weather Summary for the Past Weeks

 TemperatureHumidityPressure
High95 °F (Jan 30, 12:50 PM)100% (Jan 28, 5:50 AM)29.98 "Hg (Jan 28, 5:50 AM)
Low68 °F (Feb 1, 4:50 AM)28% (Feb 8, 2:50 PM)29.77 "Hg (Feb 1, 2:50 PM)
Average81 °F56%29.87 "Hg
* Reported Jan 28 2:50 AM — Feb 12 2:50 AM, San Salvador, Weather by CustomWeather, © 2016

Note: Actual official high and low records may vary slightly from our data, if they occured in-between our weather recording intervals... More about our weather records

Advertising

San Salvador Weather History for the Previous 24 Hours

 ConditionsComfort  
Time TempWeatherWind HumidityBarometerVisibility
2:50 AM
Fri, Feb 12
75 °FPassing clouds.12 mph50%29.89 "HgN/A
12:50 AM77 °FPassing clouds.17 mph47%29.89 "HgN/A
11:50 PM
Thu, Feb 11
77 °FPassing clouds.16 mph44%29.92 "HgN/A
10:50 PM79 °FPassing clouds.12 mph45%29.92 "HgN/A
9:50 PM79 °FPassing clouds.10 mph45%29.95 "HgN/A
8:50 PM81 °FClear.14 mph45%29.92 "Hg10 mi
7:50 PM82 °FPassing clouds.18 mph42%29.92 "HgN/A
6:50 PM84 °FPleasantly warm.16 mph40%29.89 "HgN/A
5:50 PM91 °FPassing clouds.17 mph30%29.83 "HgN/A
4:50 PM91 °FPassing clouds.17 mph30%29.83 "HgN/A
2:50 PM93 °FPassing clouds.17 mph28%29.80 "HgN/A
1:50 PM93 °FPassing clouds.17 mph28%29.83 "HgN/A
12:50 PM91 °FPassing clouds.21 mph30%29.86 "HgN/A
11:50 AM90 °FSunny.21 mph31%29.89 "Hg10 mi
10:50 AM86 °FPassing clouds.21 mph35%29.92 "HgN/A
9:50 AM82 °FSunny.18 mph37%29.95 "Hg10 mi
8:50 AM81 °FPassing clouds.21 mph39%29.95 "HgN/A
7:50 AM77 °FSunny.22 mph42%29.95 "Hg10 mi
6:50 AM75 °FSunny.23 mph44%29.92 "Hg10 mi
5:50 AM75 °FClear.23 mph44%29.89 "Hg10 mi
4:50 AM75 °FClear.21 mph44%29.89 "Hg10 mi
Weather by CustomWeather, © 2016

See weather overviewHow to use our weather pages